Weather History for Deadhorse, AK

Change the Weather History Date:

Friday, October 7, 2011

  Actual Average Record
Temperature  
Mean Temperature 28 °F -  
Max Temperature 32 °F 23 °F 40 °F (1992)
Min Temperature 25 °F 14 °F -4 °F (1996)
Degree Days  
Heating Degree Days 36    
Moisture  
Dew Point 29 °F    
Average Humidity 95    
Maximum Humidity 100    
Minimum Humidity 88    
Precipitation  
Precipitation 0.00 in - - ()
Sea Level Pressure  
Sea Level Pressure 29.77 in    
Wind  
Wind Speed 10 mph (East)    
Max Wind Speed 15 mph    
Max Gust Speed -    
Visibility 5 miles    
Events Fog , Snow    
Averages and records for this station are not official NWS values.
T = Trace of Precipitation, MM = Missing Value Source: NWS Daily Summary

Daily Weather History Graph

Daily Weather History Graph

Search for Another Location

Airport:

Trip Planner

Search our weather history database for the weather conditions in past years. The results will help you decide how hot, cold, wet, or windy it might be!

Date:

Astronomy

Oct. 07, 2011 Rise Set
Actual Time 8:34 AM AKDT 6:47 PM AKDT
Civil Twilight 7:32 AM AKDT 7:48 PM AKDT
Nautical Twilight 6:20 AM AKDT 9:00 PM AKDT
Astronomical Twilight 4:59 AM AKDT 10:19 PM AKDT
Moon 6:09 PM AKDT (10/7) 2:30 AM AKDT (10/7)
Length of Visible Light 12h 16m
Length of Day
10h 13m
Waxing Gibbous, 84% of the Moon is Illuminated
Oct 7
Waxing Gibbous
Oct 11
Full
Oct 19
Last Quarter
Oct 26
New
Nov 2
First Quarter

Hourly Weather History & Observations

Time (AKDT) Temp. Windchill Dew Point Humidity Pressure Visibility Wind Dir Wind Speed Gust Speed Precip Events Conditions
12:53 AM 30.9 °F 20.2 °F 30.0 °F 96% 29.69 in 4.0 mi ENE 15.0 mph - 0.00 in Snow Light Snow
1:14 AM 30.2 °F 19.8 °F 30.2 °F 100% 29.69 in 3.0 mi ENE 13.8 mph - 0.00 in Snow Light Snow
1:53 AM 30.9 °F 20.7 °F 30.0 °F 96% 29.70 in 4.0 mi ENE 13.8 mph - 0.00 in   Overcast
2:53 AM 30.9 °F 21.2 °F 30.0 °F 96% 29.71 in 3.0 mi ENE 12.7 mph - 0.00 in Snow Light Snow
3:53 AM 30.9 °F 21.2 °F 30.0 °F 96% 29.71 in 2.0 mi ENE 12.7 mph - 0.00 in Snow Light Snow
4:15 AM 30.2 °F 20.2 °F 30.2 °F 100% 29.71 in 3.0 mi ENE 12.7 mph - 0.00 in Snow Light Snow
4:53 AM 30.9 °F 21.2 °F 30.0 °F 96% 29.72 in 3.0 mi ENE 12.7 mph - 0.00 in Snow Light Snow
5:10 AM 30.2 °F 20.2 °F 30.2 °F 100% 29.72 in 2.0 mi ENE 12.7 mph - 0.00 in Snow Light Snow
5:53 AM 32.0 °F 23.0 °F 30.0 °F 92% 29.72 in 3.0 mi ENE 11.5 mph - 0.00 in Snow Light Snow
6:30 AM 32.0 °F 24.2 °F 30.2 °F 93% 29.73 in 2.5 mi ENE 9.2 mph - 0.00 in Snow Light Snow
6:39 AM 32.0 °F 24.8 °F 30.2 °F 93% 29.73 in 3.0 mi ENE 8.1 mph - 0.00 in Snow Light Snow
6:50 AM 32.0 °F 23.6 °F 30.2 °F 93% 29.73 in 2.0 mi ENE 10.4 mph - 0.00 in Snow Light Snow
6:53 AM 32.0 °F 23.6 °F 30.9 °F 96% 29.73 in 2.0 mi ENE 10.4 mph - 0.00 in Snow Light Snow
7:12 AM 32.0 °F 24.2 °F 30.2 °F 93% 29.73 in 5.0 mi ENE 9.2 mph - 0.00 in   Overcast
7:53 AM 32.0 °F 24.2 °F 30.9 °F 96% 29.74 in 3.0 mi ENE 9.2 mph - 0.00 in Snow Light Snow
8:05 AM 32.0 °F 24.8 °F 30.2 °F 93% 29.74 in 2.5 mi ENE 8.1 mph - 0.00 in Snow Light Snow
8:50 AM 32.0 °F 23.6 °F 30.2 °F 93% 29.75 in 3.0 mi East 10.4 mph - 0.00 in   Overcast
8:53 AM 32.0 °F 23.6 °F 30.9 °F 96% 29.75 in 3.0 mi East 10.4 mph - 0.00 in   Overcast
9:34 AM 30.2 °F 21.3 °F 30.2 °F 100% 29.75 in 9.0 mi East 10.4 mph - 0.00 in   Overcast
9:53 AM 30.9 °F 23.5 °F 30.9 °F 100% 29.76 in 3.0 mi East 8.1 mph - 0.00 in Snow Light Snow
10:53 AM 30.9 °F 24.3 °F 30.0 °F 96% 29.77 in 3.0 mi East 6.9 mph - 0.00 in Snow Light Snow
11:27 AM 30.2 °F 24.3 °F 30.2 °F 100% 29.77 in 3.0 mi East 5.8 mph - 0.00 in Snow Light Snow
11:51 AM 30.2 °F 24.3 °F 30.2 °F 100% 29.78 in 1.0 mi East 5.8 mph - 0.00 in Snow Light Snow
11:53 AM 30.9 °F 25.2 °F 30.0 °F 96% 29.78 in 0.8 mi East 5.8 mph - 0.00 in Snow Light Snow
12:29 PM 30.2 °F 24.3 °F 30.2 °F 100% 29.79 in 0.2 mi ESE 5.8 mph - 0.00 in Fog , Snow Light Snow
12:44 PM 30.2 °F 24.3 °F 30.2 °F 100% 29.79 in 0.5 mi ESE 5.8 mph - 0.00 in Fog , Snow Light Snow
12:53 PM 30.9 °F 25.2 °F 30.0 °F 96% 29.80 in 0.8 mi ESE 5.8 mph - 0.00 in Fog , Snow Light Snow
1:11 PM 30.2 °F 25.4 °F 30.2 °F 100% 29.79 in 3.0 mi East 4.6 mph - 0.00 in Snow Light Snow
1:20 PM 30.2 °F 25.4 °F 30.2 °F 100% 29.80 in 9.0 mi East 4.6 mph - 0.00 in   Overcast
1:53 PM 30.0 °F 24.1 °F 28.9 °F 96% 29.81 in 10.0 mi ESE 5.8 mph - 0.00 in   Overcast
2:51 PM 30.2 °F 25.4 °F 28.4 °F 93% 29.82 in 10.0 mi East 4.6 mph - N/A   Overcast
2:53 PM 30.9 °F 26.2 °F 28.0 °F 89% 29.82 in 10.0 mi East 4.6 mph - N/A   Overcast
3:53 PM 30.0 °F 25.2 °F 28.0 °F 92% 29.83 in 7.0 mi SE 4.6 mph - 0.00 in Snow Light Snow
4:53 PM 28.9 °F 21.9 °F 27.0 °F 92% 29.84 in 9.0 mi SSE 6.9 mph - 0.00 in Snow Light Snow
5:53 PM 28.0 °F 21.7 °F 25.0 °F 88% 29.84 in 9.0 mi SE 5.8 mph - 0.00 in Snow Light Snow
6:53 PM 27.0 °F 23.0 °F 24.1 °F 89% 29.85 in 10.0 mi SE 3.5 mph - 0.00 in   Overcast
7:53 PM 26.1 °F 21.9 °F 23.0 °F 88% 29.86 in 10.0 mi East 3.5 mph - 0.00 in   Overcast
8:53 PM 25.0 °F - 21.9 °F 88% 29.86 in 10.0 mi Calm Calm - 0.00 in   Overcast
9:53 PM 25.0 °F 20.7 °F 21.9 °F 88% 29.87 in 10.0 mi SE 3.5 mph - 0.00 in   Overcast
10:53 PM 25.0 °F - 23.0 °F 92% 29.88 in 9.0 mi Calm Calm - 0.00 in Snow Light Snow
11:53 PM 25.0 °F - 23.0 °F 92% 29.89 in 10.0 mi Calm Calm - 0.00 in   Overcast